Location: Asheville, NC
(35.6000°N, 82.5500°W)
Time: 06:21:50
(UTC-05:00)

SO-50 - Pass Details

Date: 10 January 2018
Orbit: 611 x 677 km, 64.6° (Epoch: 19 January)

Event Time Altitude Azimuth Distance (km) Brightness Sun altitude
Rises 18:37:50 0° 316° (NW) 2,982 ? -12.5°
Reaches altitude 10° 18:40:25 10° 304° (NW) 2,077 ? -13.0°
Maximum altitude 18:44:20 26° 248° (WSW) 1,301 ? -13.7°
Drops below altitude 10° 18:48:16 10° 192° (SSW) 2,090 ? -14.5°
Sets 18:50:53 0° 180° (S) 3,005 ? -15.0°
